Showing default

TANSUO 1, 28220

Orbit data source: Space-Track

TANSUO 1, 28220 is a payload satellite owned by CASC (CN) in SSO that was launched on Sun, 18 Apr 2004 UTC via a CHANG ZHENG 2C launch vehicle from the Xichang Space Center, China (XSC). Payload-class satellites include a variety of spacecraft equipped with specific instruments for various scientific and technological missions. These include communications satellites like Starlink; space stations such as the ISS; scientific satellites like the Hubble; Earth observation satellites from companies like Planet Labs, Umbra, and HawkEye 360; GPS; miniature CubeSats for education and research; and military/defense satellites.

Loading next visibility...
Identifier
28220, 2004-012A
Orbit
SSO
Country
Flag of CNCN / PRC
Related business
Manufacturer
DFH/HARB
Mission
Operational Civil Imaging
Bus & Motor
SY, Unknown motor
Mass
204 kg wet, 204 kg dry
Launch date (UTC)
2004-04-18 (22 years ago)
Launch vehicle
CHANG ZHENG 2C
Launch site
Xichang Space Center, China (XSC)
Object type
Payload
Rocket body
Debris
Shape & HBR
Box + 1 Pan, 1.5 m
Radar Cross Section
2.043 m², Large (>1 m²)

Expand to show TLE details & history
Last TLE update: 1 day ago

TLE from 1 day ago
0 TANSUO 1
1 28220U 04012A   26034.14989782  .00015297  00000-0  53038-3 0  9990
2 28220  97.8843 103.8218 0006986 127.3059 232.8818 15.29898615190572
Epoch: 2026-02-03T03:35Z
TLE epoch observation values (Epoch: 2026-02-03T03:35:51.171Z)
Latitude
-0.00001°
Longitude
-83.47638°
Altitude
482.097 km
Speed
7.623 km/s
True Right ascension
06h 55m 17s
True Declination
0° 00' 00"
Sunlit
Object was in full shadow at epoch
Visualization orbit readout
Latitude
Unknown
Longitude
Unknown
Altitude
Unknown
Speed
Unknown
Apparent Right ascension
Unknown
Apparent Declination
Unknown
Sunlit
N/A
Visualization observer readout
Local Sidereal Time
07:11:07
Azimuth
Unknown
Elevation
Unknown
Doppler factor
Unknown
Orbital elements
Apogee altitude
477.875 km
Perigee altitude
468.303 km
Semi-major axis
6,851.226 km
Eccentricity
0.0007
Inclination
97.8843°
RAAN
103.8218°
Arg. of periapsis
127.3059°
True anomaly
232.818°
Mean anomaly
232.8818°
Eccentric anomaly
232.8499°
Mean motion
3.82728 °/min
Orbital period
94.06 mins
BSTAR
0.00053038
Loading maneuver chart data...
Computing Atmospheric mass density...
Loading historical data...
Loading historical data...
Loading historical data...
Loading historical data...
Loading historical data...
Loading historical data...
Loading historical data...

Documentation

Showing up to 5 results
|